[[{"header":{"parameterUnit":"m.s-1","parameterCategory":1,"la1":30.2991,"la2":30.254,"lo1":-89.0895,"lo2":-89.0444,"dy":0.0017,"dx":0.0017,"nx":28,"ny":28,"refTime":"2024-03-22T03:00:00:Z","depth":0,"parameterNumber":2,"parameterNumberName":"U-component_of_WINDS"},"data":[0,0,0,0,0,0,0,0,0,0,0,0,0,0,0,0,0,0,0,0,0,0,0,0,0,0,0,0,0,0,0,0,0,0,0,0,0,0,0,0,0,0,0,0,0,0,0,0,0,0,0,0,0,0,0,0,0,0,-0.9175,-0.9175,0,-0.9164,-0.9164,-0.9164,-0.9158,-0.9158,-0.9158,-0.9158,-0.9146,-0.9146,-0.9146,0,0,0,0,0,0,0,0,0,0,0,0,0,-0.919,-0.919,-0.9175,-0.9175,-0.9175,-0.9164,-0.9164,-0.9164,-0.9158,-0.9158,-0.9158,-0.9158,-0.9146,-0.9146,-0.9145,0,0,0,0,0,0,0,0,0,0,0,0,0,-0.9182,-0.919,-0.9175,-0.9171,-0.917,-0.9164,-0.9164,-0.9164,-0.9158,-0.9158,-0.9158,-0.9158,-0.9146,-0.9146,-0.9145,-0.9143,0,0,-0.9144,-0.9144,0,0,0,0,0,0,0,0,-0.9182,-0.9181,-0.9172,-0.9171,-0.917,-0.9162,-0.9165,-0.9157,-0.9158,-0.9163,-0.9158,-0.9158,-0.9152,-0.9151,-0.9149,-0.9142,-0.9142,-0.9144,-0.9144,-0.9144,-0.9143,0,0,0,0,0,0,0,-0.9183,-0.9181,-0.9171,-0.9171,-0.9171,-0.9169,-0.9168,-0.9163,-0.9157,-0.9162,-0.9162,-0.916,-0.9151,-0.9149,-0.9148,-0.9142,-0.9144,-0.9144,-0.9143,-0.9143,-0.9131,-0.9131,0,0,0,0,0,0,-0.9184,-0.9182,-0.9171,-0.917,-0.9176,-0.9168,-0.9167,-0.9165,-0.9157,-0.9156,-0.9161,-0.916,-0.915,-0.9149,-0.9148,-0.9143,-0.9144,-0.9143,-0.9143,-0.9131,-0.9131,-0.9131,0,0,0,0,0,0,-0.9184,-0.9183,-0.9172,-0.9176,-0.9174,-0.9168,-0.9166,-0.9165,-0.9163,-0.9156,-0.9155,-0.9159,-0.915,-0.9148,-0.9144,-0.9143,-0.9143,-0.9142,-0.9131,-0.9131,-0.9131,-0.9135,0,0,0,0,0,0,-0.9185,-0.9183,-0.9183,-0.9176,-0.9174,-0.9168,-0.9166,-0.9165,-0.9162,-0.9161,-0.9155,-0.9154,-0.915,-0.9144,-0.9143,-0.9142,-0.9142,-0.9131,-0.9131,-0.9131,-0.9135,-0.9135,-0.9135,0,0,0,0,0,-0.9185,-0.9185,-0.9183,-0.9182,-0.9173,-0.9168,-0.9167,-0.9163,-0.9162,-0.9161,-0.9156,-0.9154,-0.9143,-0.9144,-0.9143,-0.9141,-0.9131,-0.9131,-0.9131,-0.9135,-0.9135,-0.9135,0,0,0,0,0,0,-0.9192,-0.9184,-0.9182,-0.9179,-0.9174,-0.9167,-0.9166,-0.9163,-0.9159,-0.9159,-0.9153,-0.9152,-0.9147,-0.9144,-0.9145,-0.9138,-0.9137,-0.9136,-0.914,-0.914,-0.914,-0.9141,-0.9142,0,0,0,0,0,-0.9193,-0.9189,-0.9183,-0.9181,-0.9178,-0.9172,-0.917,-0.9167,-0.9162,-0.916,-0.9155,-0.915,-0.9146,-0.9143,-0.9138,-0.9134,-0.9132,-0.9132,-0.9133,-0.9133,-0.9132,-0.9128,-0.9128,-0.9131,-0.9131,-0.9131,0,0,-0.9195,-0.919,-0.9188,-0.9182,-0.9178,-0.9174,-0.9171,-0.9167,-0.9164,-0.9159,-0.9155,-0.9151,-0.9145,-0.914,-0.9138,-0.9137,-0.9131,-0.9132,-0.9133,-0.9132,-0.9128,-0.9128,-0.9128,-0.913,-0.913,-0.913,0,0,-0.9196,-0.9193,-0.919,-0.9186,-0.918,-0.9176,-0.9175,-0.9168,-0.9166,-0.9161,-0.9156,-0.9152,-0.9145,-0.914,-0.9137,-0.9135,-0.9132,-0.9134,-0.9134,-0.9131,-0.913,-0.913,-0.9129,-0.9128,-0.9133,-0.9133,-0.9133,0,-0.92,-0.9194,-0.9189,-0.9186,-0.9182,-0.9177,-0.9174,-0.917,-0.9163,-0.916,-0.916,-0.9149,-0.9145,-0.9138,-0.9137,-0.9135,-0.9134,-0.9135,-0.9131,-0.9131,-0.913,-0.9129,-0.9128,-0.9134,-0.9134,-0.9134,-0.9134,0,-0.9198,-0.9194,-0.9193,-0.9185,-0.9182,-0.9178,-0.9172,-0.9169,-0.9166,-0.9161,-0.9155,-0.915,-0.9143,-0.9142,-0.9139,-0.9134,-0.9134,-0.9132,-0.9131,-0.913,-0.9129,-0.9128,-0.9134,-0.9134,-0.9134,-0.9134,0,0,-0.9205,-0.9193,-0.9193,-0.9189,-0.9181,-0.9178,-0.9173,-0.9167,-0.9164,-0.9158,-0.9154,-0.9147,-0.9145,-0.9141,-0.9137,-0.9134,-0.9132,-0.9133,-0.9132,-0.9132,-0.9125,-0.9126,-0.9125,-0.913,-0.9129,-0.9129,-0.9125,0,-0.9205,-0.9197,-0.9192,-0.9186,-0.9181,-0.9176,-0.9172,-0.9166,-0.9161,-0.9156,-0.9151,-0.9146,-0.9144,-0.9142,-0.9138,-0.9133,-0.913,-0.9133,-0.9125,-0.9124,-0.9126,-0.9125,-0.9126,-0.9122,-0.9124,-0.9124,-0.9124,0,-0.9204,-0.9199,-0.9192,-0.9184,-0.9181,-0.9178,-0.9171,-0.9166,-0.9159,-0.9156,-0.9151,-0.9147,-0.9141,-0.914,-0.9131,-0.9134,-0.913,-0.9126,-0.9126,-0.9125,-0.9124,-0.9123,-0.9121,-0.912,-0.9123,-0.9123,-0.9124,0,-0.9209,-0.92,-0.9194,-0.9191,-0.9181,-0.9178,-0.9174,-0.9167,-0.9163,-0.9156,-0.9153,-0.9146,-0.9142,-0.9136,-0.913,-0.913,-0.9121,-0.912,-0.9118,-0.9118,-0.9116,-0.9116,-0.9113,-0.9115,-0.9115,-0.9115,-0.9115,0,-0.9209,-0.9206,-0.9196,-0.9192,-0.9187,-0.9181,-0.9176,-0.9171,-0.9164,-0.9159,-0.9154,-0.9149,-0.9141,-0.9135,-0.913,-0.9122,-0.9121,-0.9118,-0.9116,-0.9118,-0.9118,-0.9115,-0.9115,-0.9114,-0.9114,-0.9114,-0.9114,0,-0.9214,-0.9207,-0.9201,-0.9191,-0.9188,-0.9185,-0.9177,-0.9173,-0.9167,-0.9161,-0.9159,-0.915,-0.9143,-0.9135,-0.9126,-0.9122,-0.9114,-0.9113,-0.9117,-0.9116,-0.9113,-0.9113,-0.9108,-0.9106,-0.9109,-0.9109,-0.9109,0,-0.9215,-0.9211,-0.9201,-0.9197,-0.9193,-0.9187,-0.9182,-0.9175,-0.917,-0.9161,-0.9158,-0.915,-0.9143,-0.9131,-0.9123,-0.9115,-0.9113,-0.9112,-0.9112,-0.9113,-0.9112,-0.9112,-0.9111,-0.9112,-0.9112,-0.9112,-0.9112,0,-0.9216,-0.9213,-0.9207,-0.9199,-0.9193,-0.9187,-0.918,-0.9177,-0.9169,-0.9164,-0.9156,-0.915,-0.9139,-0.9131,-0.9122,-0.9116,-0.9112,-0.9112,-0.9111,-0.9112,-0.9114,-0.9112,-0.9116,-0.9112,-0.9112,-0.9112,-0.9112,-0.9112,-0.9218,-0.9215,-0.9206,-0.9199,-0.9193,-0.9187,-0.9182,-0.9176,-0.9169,-0.9159,-0.9155,-0.9147,-0.9138,-0.9125,-0.912,-0.9112,-0.9112,-0.911,-0.911,-0.9109,-0.9109,-0.9115,-0.9111,-0.9111,-0.9111,-0.9111,-0.9111,0,-0.9219,-0.9213,-0.9207,-0.9197,-0.9191,-0.9188,-0.9179,-0.9175,-0.9167,-0.9159,-0.9152,-0.9142,-0.9134,-0.9125,-0.9116,-0.9111,-0.9109,-0.9109,-0.9109,-0.9108,-0.9111,-0.9112,-0.9111,-0.9111,-0.9111,-0.9111,-0.9111,-0.9111,-0.9219,-0.9212,-0.9207,-0.9197,-0.9191,-0.9182,-0.9178,-0.9171,-0.9165,-0.9154,-0.9146,-0.9141,-0.9132,-0.9122,-0.9113,-0.9111,-0.9107,-0.9108,-0.9105,-0.9108,-0.9108,-0.9108,-0.9109,-0.9107,-0.9107,-0.9102,-0.9102,-0.9102]},{"header":{"parameterUnit":"m.s-1","parameterCategory":1,"la1":30.2991,"la2":30.254,"lo1":-89.0895,"lo2":-89.0444,"dy":0.0017,"dx":0.0017,"nx":28,"ny":28,"refTime":"2024-03-22T03:00:00:Z","depth":0,"parameterNumber":3,"parameterNumberName":"V-component_of_WINDS"},"data":[0,0,0,0,0,0,0,0,0,0,0,0,0,0,0,0,0,0,0,0,0,0,0,0,0,0,0,0,0,0,0,0,0,0,0,0,0,0,0,0,0,0,0,0,0,0,0,0,0,0,0,0,0,0,0,0,0,0,-7.2434,-7.2434,0,-7.2456,-7.2456,-7.2456,-7.2418,-7.2417,-7.2416,-7.2414,-7.2433,-7.2435,-7.2437,0,0,0,0,0,0,0,0,0,0,0,0,0,-7.2358,-7.236,-7.2434,-7.2434,-7.2434,-7.2456,-7.2456,-7.2456,-7.2418,-7.2417,-7.2415,-7.2414,-7.2433,-7.2435,-7.2437,0,0,0,0,0,0,0,0,0,0,0,0,0,-7.2387,-7.236,-7.2434,-7.2418,-7.2417,-7.2455,-7.2456,-7.2456,-7.2419,-7.2417,-7.2415,-7.2413,-7.2432,-7.2435,-7.2437,-7.2491,0,0,-7.2445,-7.2446,0,0,0,0,0,0,0,0,-7.2385,-7.2389,-7.242,-7.2419,-7.2418,-7.2432,-7.2436,-7.2468,-7.2419,-7.2418,-7.2414,-7.2412,-7.2434,-7.2437,-7.2445,-7.2492,-7.2493,-7.2445,-7.2447,-7.2448,-7.2448,0,0,0,0,0,0,0,-7.2383,-7.2388,-7.2442,-7.2421,-7.2419,-7.241,-7.2412,-7.2442,-7.2436,-7.2418,-7.2415,-7.2418,-7.2433,-7.2442,-7.2445,-7.2493,-7.2445,-7.2447,-7.2449,-7.245,-7.2588,-7.259,0,0,0,0,0,0,-7.2383,-7.2387,-7.2442,-7.2443,-7.2397,-7.2413,-7.2415,-7.243,-7.2436,-7.2435,-7.242,-7.2417,-7.2439,-7.2442,-7.2445,-7.2511,-7.2448,-7.245,-7.2451,-7.2586,-7.2588,-7.2591,0,0,0,0,0,0,-7.2382,-7.2389,-7.2441,-7.2414,-7.242,-7.2416,-7.2433,-7.2431,-7.244,-7.2438,-7.2436,-7.243,-7.2438,-7.2442,-7.2481,-7.2511,-7.2451,-7.2453,-7.2583,-7.2587,-7.259,-7.264,0,0,0,0,0,0,-7.238,-7.2388,-7.2409,-7.2415,-7.2422,-7.2476,-7.2435,-7.2433,-7.2445,-7.2441,-7.2447,-7.2446,-7.2436,-7.2477,-7.2483,-7.2513,-7.2455,-7.258,-7.2585,-7.2588,-7.2636,-7.2645,-7.2653,0,0,0,0,0,-7.2377,-7.2421,-7.241,-7.2417,-7.2447,-7.2478,-7.2482,-7.247,-7.2447,-7.2468,-7.2467,-7.2446,-7.2507,-7.2481,-7.2488,-7.2519,-7.2579,-7.2584,-7.2588,-7.2632,-7.2643,-7.2652,0,0,0,0,0,0,-7.2416,-7.2421,-7.2409,-7.2456,-7.2467,-7.2471,-7.2497,-7.2482,-7.2498,-7.2494,-7.2478,-7.248,-7.2522,-7.2524,-7.2496,-7.2573,-7.2539,-7.2545,-7.257,-7.258,-7.2588,-7.2587,-7.2458,0,0,0,0,0,-7.243,-7.2455,-7.2458,-7.2499,-7.2506,-7.2501,-7.2513,-7.2504,-7.2515,-7.2518,-7.252,-7.253,-7.2552,-7.2566,-7.2585,-7.2636,-7.2638,-7.2661,-7.2669,-7.2676,-7.2682,-7.2711,-7.2722,-7.2607,-7.2607,-7.2606,0,0,-7.2459,-7.2465,-7.2482,-7.2507,-7.2515,-7.2541,-7.2505,-7.2533,-7.2553,-7.2522,-7.256,-7.2562,-7.2572,-7.2618,-7.2638,-7.2621,-7.2714,-7.2682,-7.2688,-7.269,-7.2717,-7.2728,-7.2738,-7.261,-7.2609,-7.2609,0,0,-7.2526,-7.2533,-7.2569,-7.2578,-7.2591,-7.2588,-7.2597,-7.2604,-7.2605,-7.2643,-7.2622,-7.2644,-7.2681,-7.269,-7.2699,-7.2774,-7.2755,-7.278,-7.2823,-7.2852,-7.2861,-7.2869,-7.2897,-7.2907,-7.2786,-7.2786,-7.2786,0,-7.256,-7.26,-7.2589,-7.2621,-7.2633,-7.261,-7.2647,-7.2655,-7.2673,-7.2682,-7.2663,-7.2711,-7.2716,-7.2765,-7.2783,-7.2791,-7.2801,-7.2779,-7.2861,-7.2869,-7.2876,-7.2902,-7.2913,-7.2789,-7.2789,-7.2788,-7.2788,0,-7.2642,-7.267,-7.2698,-7.2719,-7.2734,-7.2768,-7.2763,-7.278,-7.277,-7.2769,-7.2809,-7.2815,-7.2836,-7.2847,-7.2837,-7.2895,-7.2885,-7.2864,-7.2829,-7.289,-7.2915,-7.2925,-7.2793,-7.2792,-7.2791,-7.2791,0,0,-7.2731,-7.2749,-7.2759,-7.277,-7.2783,-7.2805,-7.2838,-7.2861,-7.2877,-7.289,-7.2919,-7.2952,-7.2934,-7.2944,-7.2935,-7.296,-7.3021,-7.2936,-7.2936,-7.2953,-7.3088,-7.3104,-7.3116,-7.3009,-7.3011,-7.3013,-7.3087,0,-7.2799,-7.2859,-7.2852,-7.2909,-7.2936,-7.2915,-7.2944,-7.2956,-7.2957,-7.2979,-7.2979,-7.3004,-7.2977,-7.2984,-7.3008,-7.3009,-7.3048,-7.3003,-7.3035,-7.3037,-7.3034,-7.3128,-7.3145,-7.3215,-7.3097,-7.3098,-7.3099,0,-7.2885,-7.2906,-7.2966,-7.2979,-7.299,-7.3017,-7.3039,-7.306,-7.3074,-7.3072,-7.3087,-7.3074,-7.3108,-7.3073,-7.312,-7.309,-7.3103,-7.3106,-7.3108,-7.3111,-7.3072,-7.3135,-7.3237,-7.3248,-7.3114,-7.3113,-7.3112,0,-7.2947,-7.2989,-7.3031,-7.304,-7.3055,-7.3075,-7.3082,-7.3094,-7.3109,-7.3128,-7.3138,-7.316,-7.3172,-7.3189,-7.3183,-7.3158,-7.3232,-7.3196,-7.3232,-7.3232,-7.3248,-7.3247,-7.3355,-7.3256,-7.3256,-7.3255,-7.3255,0,-7.3023,-7.3061,-7.3059,-7.3085,-7.3128,-7.312,-7.3162,-7.3166,-7.3177,-7.3204,-7.3186,-7.3211,-7.3201,-7.3226,-7.3221,-7.3262,-7.3267,-7.3267,-7.3265,-7.3269,-7.3269,-7.3277,-7.3272,-7.3258,-7.3258,-7.3257,-7.3257,0,-7.3098,-7.3098,-7.3144,-7.3156,-7.316,-7.3191,-7.3201,-7.3226,-7.3226,-7.326,-7.3268,-7.3268,-7.3296,-7.3292,-7.3322,-7.3319,-7.3371,-7.3362,-7.3367,-7.3365,-7.3402,-7.3399,-7.3519,-7.3535,-7.3425,-7.3426,-7.3427,0,-7.3148,-7.3177,-7.3194,-7.3212,-7.3221,-7.3249,-7.3265,-7.3259,-7.3277,-7.3296,-7.3319,-7.3346,-7.3367,-7.3413,-7.3416,-7.344,-7.3432,-7.3473,-7.3436,-7.344,-7.3435,-7.3433,-7.3437,-7.348,-7.3482,-7.3483,-7.3484,0,-7.3235,-7.3235,-7.326,-7.3287,-7.3307,-7.3327,-7.3344,-7.336,-7.3355,-7.3376,-7.3406,-7.3423,-7.3456,-7.3483,-7.3506,-7.3513,-7.3498,-7.3496,-7.3505,-7.351,-7.3512,-7.3513,-7.3388,-7.3493,-7.3492,-7.3491,-7.3491,-7.349,-7.33,-7.3326,-7.3343,-7.3373,-7.3386,-7.3404,-7.3429,-7.3434,-7.3459,-7.3487,-7.3481,-7.3516,-7.353,-7.356,-7.3569,-7.3596,-7.3581,-7.3595,-7.3598,-7.3602,-7.3607,-7.3507,-7.36,-7.3599,-7.3599,-7.3599,-7.3599,0,-7.3388,-7.3399,-7.3426,-7.3453,-7.3477,-7.3463,-7.3483,-7.3503,-7.3534,-7.355,-7.3573,-7.3608,-7.3635,-7.3641,-7.3667,-7.3688,-7.3682,-7.3695,-7.3693,-7.3696,-7.3618,-7.3608,-7.37,-7.3699,-7.3699,-7.3699,-7.3699,-7.3699,-7.3437,-7.3481,-7.3483,-7.3535,-7.3545,-7.358,-7.3593,-7.361,-7.3623,-7.3664,-7.3688,-7.3692,-7.3704,-7.3732,-7.3757,-7.3758,-7.3768,-7.3785,-7.3783,-7.3711,-7.3701,-7.3691,-7.3681,-7.3787,-7.3787,-7.3858,-7.3859,-7.3859]}]]